TimePST,TemperatureF,Dew PointF,Humidity,Sea Level PressureIn,VisibilityMPH,Wind Direction,Wind SpeedMPH,Gust SpeedMPH,PrecipitationIn,Events,Conditions,WindDirDegrees,DateUTC
12:09 AM,21.2,19.4,93,29.72,0.2,NW,8.1,-,0.02,Fog-Snow,Snow,310,2014-02-18 08:09:00
12:51 AM,19.4,19.4,100,29.74,0.8,WNW,10.4,24.2,0.11,Snow,Light Snow,290,2014-02-18 08:51:00
12:53 AM,19.9,19.0,96,29.88,0.5,WNW,9.2,24.2,0.12,Fog-Snow,Light Snow,300,2014-02-18 08:53:00
1:05 AM,19.4,17.6,93,29.75,1.8,WNW,10.4,25.3,0.00,Snow,Light Snow,290,2014-02-18 09:05:00
1:20 AM,19.4,19.4,100,29.76,1.0,West,8.1,24.2,0.01,Snow,Light Snow,270,2014-02-18 09:20:00
1:35 AM,19.4,17.6,93,29.77,2.0,West,10.4,27.6,0.02,Snow,Light Snow,260,2014-02-18 09:35:00
1:45 AM,19.4,17.6,93,29.77,2.5,WNW,8.1,24.2,0.02,Snow,Light Snow,300,2014-02-18 09:45:00
1:53 AM,19.9,18.0,92,29.91,2.5,West,11.5,25.3,0.02,Snow,Light Snow,280,2014-02-18 09:53:00
2:02 AM,19.4,17.6,93,29.78,5.0,West,8.1,18.4,0.00,Snow,Light Snow,260,2014-02-18 10:02:00
2:32 AM,19.4,17.6,93,29.79,10.0,West,9.2,24.2,0.00,,Overcast,260,2014-02-18 10:32:00
2:43 AM,19.4,17.6,93,29.79,10.0,West,8.1,-,0.00,,Overcast,260,2014-02-18 10:43:00
2:53 AM,19.9,18.0,92,29.93,10.0,WSW,10.4,20.7,0.00,,Overcast,250,2014-02-18 10:53:00
3:04 AM,19.4,17.6,93,29.79,10.0,WSW,10.4,24.2,0.00,,Overcast,250,2014-02-18 11:04:00
3:49 AM,19.4,17.6,93,29.80,10.0,Variable,6.9,-,0.00,,Overcast,0,2014-02-18 11:49:00
3:53 AM,19.9,18.0,92,29.94,10.0,Variable,6.9,-,0.00,,Overcast,0,2014-02-18 11:53:00
4:23 AM,19.4,19.4,100,29.82,7.0,Variable,6.9,-,N/A,,Overcast,0,2014-02-18 12:23:00
4:53 AM,19.9,19.0,96,29.96,4.0,SW,9.2,20.7,0.00,Snow,Light Snow,220,2014-02-18 12:53:00
5:06 AM,19.4,19.4,100,29.83,2.0,SW,8.1,-,0.00,Snow,Light Snow,230,2014-02-18 13:06:00
5:13 AM,19.4,19.4,100,29.83,1.5,Variable,6.9,-,0.00,Snow,Light Snow,0,2014-02-18 13:13:00
5:25 AM,19.4,19.4,100,29.83,2.5,Variable,6.9,-,0.00,Snow,Light Snow,0,2014-02-18 13:25:00
5:33 AM,19.4,19.4,100,29.83,2.0,Variable,5.8,-,0.00,Snow,Light Snow,0,2014-02-18 13:33:00
5:41 AM,19.4,19.4,100,29.83,2.0,WSW,4.6,-,0.00,Snow,Light Snow,240,2014-02-18 13:41:00
5:50 AM,21.2,19.4,93,29.83,2.0,Variable,4.6,-,0.00,Snow,Light Snow,0,2014-02-18 13:50:00
5:53 AM,21.0,19.9,96,29.96,2.5,Variable,5.8,-,0.00,Snow,Light Snow,0,2014-02-18 13:53:00
6:16 AM,21.2,19.4,93,29.82,1.8,Variable,5.8,-,0.00,Snow,Light Snow,0,2014-02-18 14:16:00
6:25 AM,21.2,19.4,93,29.82,2.0,Variable,6.9,-,0.01,Snow,Light Snow,0,2014-02-18 14:25:00
6:46 AM,21.2,19.4,93,29.82,1.5,SW,8.1,16.1,0.01,Snow,Light Snow,220,2014-02-18 14:46:00
6:53 AM,21.0,19.0,92,29.96,1.8,SW,10.4,16.1,0.01,Snow,Light Snow,230,2014-02-18 14:53:00
6:58 AM,21.2,19.4,93,29.83,3.0,SW,5.8,18.4,0.00,Snow,Light Snow,230,2014-02-18 14:58:00
7:11 AM,21.2,19.4,93,29.83,2.5,WSW,8.1,20.7,0.00,Snow,Light Snow,240,2014-02-18 15:11:00
7:13 AM,21.2,19.4,93,29.84,3.0,SW,9.2,20.7,0.00,Snow,Light Snow,230,2014-02-18 15:13:00
7:27 AM,21.2,19.4,93,29.84,1.8,Variable,6.9,16.1,0.00,Snow,Light Snow,0,2014-02-18 15:27:00
7:29 AM,21.2,19.4,93,29.84,1.2,Variable,6.9,16.1,0.00,Snow,Light Snow,0,2014-02-18 15:29:00
7:53 AM,21.0,19.9,96,29.99,1.0,Variable,5.8,-,0.00,Snow,Light Snow,0,2014-02-18 15:53:00
8:12 AM,21.2,21.2,100,29.85,0.8,Variable,4.6,-,0.00,Snow,Light Snow,0,2014-02-18 16:12:00
8:21 AM,21.2,21.2,100,29.84,1.5,SW,6.9,-,0.00,Snow,Light Snow,220,2014-02-18 16:21:00
8:27 AM,21.2,21.2,100,29.85,3.0,Variable,5.8,-,0.00,Snow,Light Snow,0,2014-02-18 16:27:00
8:29 AM,21.2,21.2,100,29.85,3.0,Variable,6.9,-,0.00,Snow,Light Snow,0,2014-02-18 16:29:00
8:34 AM,21.2,21.2,100,29.85,2.5,Variable,4.6,-,0.00,Snow,Light Snow,0,2014-02-18 16:34:00
8:42 AM,23.0,21.2,93,29.85,1.2,Variable,4.6,-,0.00,Snow,Light Snow,0,2014-02-18 16:42:00
8:50 AM,23.0,21.2,93,29.85,0.8,Variable,5.8,-,0.00,Snow,Light Snow,0,2014-02-18 16:50:00
8:53 AM,21.9,21.0,96,29.99,0.8,Variable,5.8,-,0.01,Snow,Light Snow,0,2014-02-18 16:53:00
9:17 AM,24.8,23.0,93,29.85,0.8,SSW,8.1,-,0.00,,Overcast,210,2014-02-18 17:17:00
9:24 AM,24.8,23.0,93,29.85,1.2,Variable,5.8,-,0.00,,Overcast,0,2014-02-18 17:24:00
9:34 AM,24.8,23.0,93,29.85,1.8,Variable,6.9,-,0.00,Snow,Light Snow,0,2014-02-18 17:34:00
9:44 AM,24.8,23.0,93,29.85,1.0,SW,11.5,20.7,0.00,Snow,Light Snow,220,2014-02-18 17:44:00
10:05 AM,24.8,23.0,93,29.85,1.2,SW,9.2,20.7,0.00,Snow,Light Snow,220,2014-02-18 18:05:00
10:10 AM,24.8,23.0,93,29.85,2.0,SW,9.2,20.7,0.00,Snow,Light Snow,220,2014-02-18 18:10:00
10:21 AM,24.8,23.0,93,29.85,1.2,SW,10.4,26.5,0.01,Snow,Light Snow,220,2014-02-18 18:21:00
10:48 AM,24.8,24.8,100,29.84,1.5,SSW,9.2,21.9,0.01,Snow,Light Snow,200,2014-02-18 18:48:00
10:49 AM,24.8,24.8,100,29.84,1.2,Variable,6.9,21.9,0.01,Snow,Light Snow,0,2014-02-18 18:49:00
10:53 AM,25.0,24.1,96,29.97,1.2,Variable,6.9,-,0.01,Snow,Light Snow,0,2014-02-18 18:53:00
10:57 AM,24.8,24.8,100,29.83,1.5,Variable,6.9,-,0.00,Snow,Light Snow,0,2014-02-18 18:57:00
11:11 AM,24.8,24.8,100,29.82,1.2,Variable,6.9,20.7,0.00,Snow,Light Snow,0,2014-02-18 19:11:00
11:20 AM,24.8,24.8,100,29.82,0.5,South,8.1,-,0.00,Fog-Snow,Light Snow,190,2014-02-18 19:20:00
11:34 AM,24.8,24.8,100,29.81,0.2,Variable,6.9,-,0.00,Fog-Snow,Light Snow,0,2014-02-18 19:34:00
11:43 AM,24.8,24.8,100,29.80,0.5,Variable,4.6,-,0.01,Fog-Snow,Light Snow,0,2014-02-18 19:43:00
11:53 AM,26.1,24.1,92,29.93,0.5,Variable,4.6,-,0.01,Fog-Snow,Light Snow,0,2014-02-18 19:53:00
12:08 PM,24.8,24.8,100,29.79,0.2,Variable,5.8,-,0.01,Fog-Snow,Light Snow,0,2014-02-18 20:08:00
12:53 PM,26.1,25.0,96,29.89,0.5,South,9.2,19.6,0.03,Fog-Snow,Light Snow,180,2014-02-18 20:53:00
1:04 PM,26.6,24.8,93,29.75,1.5,South,9.2,24.2,0.00,Snow,Light Snow,180,2014-02-18 21:04:00
1:07 PM,26.6,24.8,93,29.75,3.0,South,12.7,24.2,0.00,,Overcast,180,2014-02-18 21:07:00
1:35 PM,26.6,24.8,93,29.73,10.0,South,8.1,25.3,0.00,,Overcast,180,2014-02-18 21:35:00
1:53 PM,26.1,24.1,92,29.85,10.0,South,9.2,23.0,0.00,,Overcast,190,2014-02-18 21:53:00
2:14 PM,24.8,23.0,93,29.70,10.0,SSW,12.7,24.2,N/A,,Overcast,200,2014-02-18 22:14:00
2:23 PM,24.8,23.0,93,29.69,10.0,South,8.1,20.7,0.00,,Overcast,180,2014-02-18 22:23:00
2:53 PM,25.0,23.0,92,29.79,10.0,South,9.2,23.0,0.00,,Overcast,180,2014-02-18 22:53:00
3:20 PM,24.8,23.0,93,29.64,2.5,South,13.8,28.8,0.00,Snow,Light Snow,170,2014-02-18 23:20:00
3:26 PM,24.8,23.0,93,29.63,1.2,SSE,10.4,23.0,0.00,Snow,Light Snow,150,2014-02-18 23:26:00
3:31 PM,24.8,23.0,93,29.63,0.8,SSE,8.1,23.0,0.00,Snow,Light Snow,150,2014-02-18 23:31:00
3:53 PM,25.0,23.0,92,29.73,0.2,South,8.1,-,0.01,Fog-Snow,Light Snow,170,2014-02-18 23:53:00
4:09 PM,24.8,24.8,100,29.60,0.2,SSE,9.2,-,0.02,Fog-Snow,Snow,160,2014-02-19 00:09:00
4:53 PM,26.1,25.0,96,29.67,0.2,SSE,8.1,19.6,0.11,Fog-Snow,Snow,160,2014-02-19 00:53:00
5:53 PM,26.1,26.1,100,29.61,0.2,South,11.5,29.9,0.10,Fog-Snow,Snow,180,2014-02-19 01:53:00
6:53 PM,27.0,26.1,96,29.57,0.2,South,16.1,29.9,0.10,Fog-Snow,Heavy Snow,190,2014-02-19 02:53:00
7:53 PM,27.0,27.0,100,29.58,0.2,SW,12.7,21.9,0.15,Fog-Snow,Heavy Snow,230,2014-02-19 03:53:00
8:51 PM,26.6,26.6,100,29.46,0.5,WSW,12.7,32.2,0.08,Fog-Snow,Light Snow,240,2014-02-19 04:51:00
8:53 PM,27.0,26.1,96,29.55,0.5,WSW,13.8,28.8,0.08,Fog-Snow,Light Snow,250,2014-02-19 04:53:00
9:03 PM,26.6,26.6,100,29.46,0.2,West,13.8,34.5,0.02,Fog-Snow,Snow,260,2014-02-19 05:03:00
9:18 PM,26.6,24.8,93,29.46,0.8,West,19.6,36.8,0.03,Snow,Light Snow,260,2014-02-19 05:18:00
9:37 PM,26.6,24.8,93,29.46,0.2,WSW,13.8,29.9,0.06,Fog-Snow,Snow,240,2014-02-19 05:37:00
9:50 PM,26.6,24.8,93,29.46,0.2,West,10.4,29.9,0.07,Fog-Snow,Snow,260,2014-02-19 05:50:00
9:53 PM,26.1,25.0,96,29.56,0.2,West,9.2,29.9,0.08,Fog-Snow,Snow,260,2014-02-19 05:53:00
11:42 PM,21.2,17.6,86,29.51,2.5,WNW,10.4,29.9,0.00,Snow,Light Snow,290,2014-02-19 07:42:00
11:53 PM,21.0,18.0,88,29.63,1.5,WNW,13.8,33.4,0.00,Snow,Light Snow,290,2014-02-19 07:53:00